Simultaneous Nadir Overpasses (SNOs) Predictions

Prediction of SNOs between AQUA and METOP-A Satellite Orbit:

Table of predicted SNOs for the next 14.0 days since TLE Epoch: 5/4/2019
Index Date (AQUA) Time (AQUA) Lat,Lon (AQUA) SZA (AQUA ) Date (METOP-A) Time (METOP-A) Lat,Lon (METOP-A) SZA (METOP-A ) Distance(km) Time Diff (sec)
1 05/05/2019 06:39:50 74.50, 72.87 58.33 05/05/2019 06:38:45 74.45, 69.80 58.42 91.31 65
2 05/05/2019 07:29:27 -75.11,-121.03 121.02 05/05/2019 07:29:13 -75.13,-121.04 121.00 1.96 14
3 05/05/2019 08:18:56 75.16, 46.47 59.03 05/05/2019 08:19:52 75.15, 46.35 59.01 3.52 56
4 05/08/2019 02:14:03 74.49, 139.33 57.53 05/08/2019 02:12:58 74.41, 136.13 57.61 95.93 65
5 05/08/2019 03:03:41 -75.14, -54.69 121.77 05/08/2019 03:03:25 -75.14, -54.58 121.77 3.05 16
6 05/08/2019 03:53:09 75.15, 112.94 58.23 05/08/2019 03:54:04 75.16, 112.80 58.24 4.04 55
7 05/10/2019 22:37:55 -75.14, 11.77 122.53 05/10/2019 22:37:39 -75.11, 11.73 122.55 3.08 16
8 05/10/2019 23:27:24 75.19, 179.25 57.53 05/10/2019 23:28:17 75.17, 179.25 57.50 1.98 53
9 05/13/2019 18:12:09 -75.13, 78.22 123.25 05/13/2019 18:11:52 -75.12, 78.17 123.25 1.67 17
10 05/13/2019 19:01:38 75.19,-114.31 56.82 05/13/2019 19:02:30 75.19,-114.31 56.80 0.69 52
11 05/16/2019 13:46:22 -75.13, 144.66 123.91 05/16/2019 13:46:04 -75.13, 144.61 123.91 1.37 18
12 05/16/2019 14:35:51 75.20, -47.88 56.15 05/16/2019 14:36:42 75.20, -47.87 56.14 0.28 51




NCC Satellite Simultaneous Nadir Overpasses (SNOs) Prediction Service
